Weather History for Newport, VT

Change the Weather History Date:

Monday, January 7, 2013

  Actual Average Record
Temperature  
Mean Temperature 14 °F -  
Max Temperature 23 °F 25 °F 50 °F (1946)
Min Temperature 6 °F 7 °F -20 °F (1945)
Degree Days  
Heating Degree Days 50    
Moisture  
Dew Point 8 °F    
Average Humidity 80    
Maximum Humidity 88    
Minimum Humidity 64    
Precipitation  
Precipitation 0.00 in - - ()
Sea Level Pressure  
Sea Level Pressure 30.22 in    
Wind  
Wind Speed 6 mph (NW)    
Max Wind Speed 13 mph    
Max Gust Speed -    
Visibility 8 miles    
Events Snow    
Averages and records for this station are not official NWS values.
T = Trace of Precipitation, MM = Missing Value Source: NWS Daily Summary

Daily Weather History Graph

Daily Weather History Graph

Search for Another Location

Airport:

Trip Planner

Search our weather history database for the weather conditions in past years. The results will help you decide how hot, cold, wet, or windy it might be!

Date:

Astronomy

Jan. 07, 2013 Rise Set
Actual Time 7:26 AM EST 4:24 PM EST
Civil Twilight 6:53 AM EST 4:57 PM EST
Nautical Twilight 6:16 AM EST 5:34 PM EST
Astronomical Twilight 5:40 AM EST 6:10 PM EST
Moon 2:43 AM EST (1/7) 12:35 PM EST (1/7)
Length of Visible Light 10h 04m
Length of Day
8h 58m
Waning Crescent, 23% of the Moon is Illuminated
Jan 7
Waning Crescent
Jan 11
New
Jan 18
First Quarter
Jan 26
Full
Feb 3
Last Quarter

Hourly Weather History & Observations

Time (EST) Temp. Windchill Dew Point Humidity Pressure Visibility Wind Dir Wind Speed Gust Speed Precip Events Conditions
12:35 AM 23.0 °F 13.1 °F 19.9 °F 88% 29.93 in 5.0 mi North 9.2 mph - N/A Snow Light Snow
12:55 AM 22.6 °F 11.9 °F 19.4 °F 87% 29.95 in 7.0 mi NNW 10.4 mph - N/A Snow Light Snow
1:35 AM 20.7 °F 11.9 °F 16.7 °F 85% 29.97 in 5.0 mi North 6.9 mph - N/A Snow Light Snow
1:55 AM 19.2 °F 10.2 °F 14.9 °F 83% 29.99 in 7.0 mi NNW 6.9 mph - N/A Snow Light Snow
2:15 AM 18.5 °F 6.8 °F 14.0 °F 83% 30.00 in 7.0 mi NNW 10.4 mph - N/A Snow Light Snow
2:35 AM 17.6 °F 4.3 °F 13.5 °F 84% 30.02 in 7.0 mi North 12.7 mph - N/A Snow Light Snow
2:55 AM 17.4 °F 4.7 °F 13.5 °F 84% 30.04 in 5.0 mi North 11.5 mph - N/A Snow Light Snow
3:15 AM 17.2 °F 4.5 °F 13.1 °F 84% 30.05 in 7.0 mi North 11.5 mph - N/A Snow Light Snow
3:35 AM 16.9 °F 6.4 °F 12.7 °F 84% 30.06 in 10.0 mi North 8.1 mph - N/A   Overcast
3:55 AM 16.5 °F 6.9 °F 12.4 °F 84% 30.07 in 10.0 mi North 6.9 mph - N/A   Overcast
4:15 AM 15.8 °F 3.4 °F 12.0 °F 85% 30.09 in 10.0 mi North 10.4 mph - N/A   Overcast
4:35 AM 15.8 °F 5.1 °F 11.8 °F 84% 30.11 in 10.0 mi NNW 8.1 mph - N/A Snow Light Snow
4:55 AM 15.3 °F 4.4 °F 11.1 °F 84% 30.12 in 10.0 mi NW 8.1 mph - N/A   Overcast
5:15 AM 14.7 °F 2.9 °F 10.4 °F 83% 30.14 in 10.0 mi NNW 9.2 mph - N/A   Overcast
5:55 AM 12.0 °F -0.4 °F 7.5 °F 82% 30.15 in 10.0 mi North 9.2 mph - N/A   Overcast
6:15 AM 11.8 °F 2.5 °F 7.3 °F 82% 30.17 in 10.0 mi NNW 5.8 mph - N/A Snow Light Snow
6:35 AM 11.3 °F 0.7 °F 6.8 °F 82% 30.18 in 7.0 mi North 6.9 mph - N/A Snow Light Snow
6:55 AM 11.1 °F 1.7 °F 6.6 °F 82% 30.20 in 7.0 mi NNW 5.8 mph - N/A Snow Light Snow
7:15 AM 10.9 °F 0.2 °F 6.4 °F 82% 30.22 in 4.0 mi North 6.9 mph - N/A Snow Light Snow
7:35 AM 10.4 °F 0.8 °F 5.9 °F 82% 30.24 in 3.0 mi NNW 5.8 mph - N/A Snow Light Snow
7:55 AM 9.7 °F -0.1 °F 5.2 °F 82% 30.25 in 2.5 mi North 5.8 mph - N/A Snow Light Snow
8:15 AM 9.5 °F -0.3 °F 5.0 °F 82% 30.27 in 4.0 mi North 5.8 mph - N/A Snow Light Snow
8:35 AM 9.1 °F -0.7 °F 4.6 °F 82% 30.28 in 2.0 mi North 5.8 mph - N/A Snow Light Snow
8:55 AM 8.2 °F -1.8 °F 3.6 °F 81% 30.29 in 2.5 mi North 5.8 mph - N/A Snow Light Snow
9:15 AM 7.5 °F - 2.8 °F 81% 30.30 in 2.5 mi Calm Calm - N/A Snow Light Snow
9:35 AM 8.1 °F - 2.5 °F 78% 30.31 in 0.8 mi Calm Calm - N/A Snow Light Snow
9:55 AM 6.8 °F - 1.4 °F 79% 30.32 in 0.8 mi Calm Calm - N/A Snow Light Snow
10:15 AM 6.3 °F - 0.9 °F 78% 30.32 in 4.0 mi Calm Calm - N/A Snow Light Snow
10:35 AM 9.5 °F - 3.9 °F 78% 30.31 in 5.0 mi Calm Calm - N/A Snow Light Snow
10:55 AM 9.9 °F - 2.8 °F 73% 30.32 in 4.0 mi Calm Calm - N/A Snow Light Snow
11:15 AM 11.3 °F 5.1 °F 4.5 °F 74% 30.31 in 10.0 mi East 3.5 mph - N/A   Clear
11:35 AM 14.0 °F 8.2 °F 5.5 °F 69% 30.31 in 7.0 mi East 3.5 mph - N/A Snow Light Snow
11:55 AM 13.6 °F - 5.4 °F 70% 30.31 in 10.0 mi Calm Calm - N/A Snow Light Snow
12:35 PM 14.9 °F - 6.8 °F 70% 30.31 in 10.0 mi Calm Calm - N/A   Overcast
12:55 PM 14.2 °F 8.4 °F 6.1 °F 70% 30.30 in 10.0 mi NNE 3.5 mph - N/A   Mostly Cloudy
1:55 PM 18.0 °F - 7.9 °F 65% 30.30 in 5.0 mi Calm Calm - N/A Snow Light Snow
2:15 PM 17.4 °F - 7.2 °F 64% 30.30 in 7.0 mi Calm Calm - N/A   Scattered Clouds
2:55 PM 14.7 °F - 6.4 °F 70% 30.31 in 10.0 mi Calm Calm - N/A   Clear
3:15 PM 15.4 °F - 7.3 °F 70% 30.31 in 10.0 mi Calm Calm - N/A   Clear
3:35 PM 14.5 °F - 7.3 °F 73% 30.31 in 10.0 mi Calm Calm - N/A   Clear
3:55 PM 12.0 °F - 3.9 °F 70% 30.31 in 10.0 mi Calm Calm - N/A   Clear
4:15 PM 10.4 °F - 5.4 °F 80% 30.31 in 10.0 mi Calm Calm - N/A   Clear
4:35 PM 10.8 °F - 3.4 °F 72% 30.31 in 10.0 mi Calm Calm - N/A   Clear
4:55 PM 13.5 °F - 8.6 °F 81% 30.31 in 10.0 mi Calm Calm - N/A   Clear
5:15 PM 13.5 °F - 8.1 °F 79% 30.31 in 10.0 mi Calm Calm - N/A   Clear
5:35 PM 11.5 °F - 6.8 °F 81% 30.30 in 10.0 mi Calm Calm - N/A   Clear
5:55 PM 12.2 °F - 9.0 °F 87% 30.30 in 10.0 mi Calm Calm - N/A   Clear
6:15 PM 11.3 °F 3.3 °F 7.7 °F 85% 30.30 in 10.0 mi SSW 4.6 mph - N/A   Clear
6:35 PM 10.9 °F 4.7 °F 7.2 °F 85% 30.29 in 10.0 mi South 3.5 mph - N/A   Clear
6:55 PM 10.4 °F 2.2 °F 7.3 °F 87% 30.28 in 10.0 mi SSW 4.6 mph - N/A   Clear
7:15 PM 8.4 °F 1.8 °F 4.8 °F 85% 30.27 in 10.0 mi SSW 3.5 mph - N/A   Clear
7:35 PM 8.2 °F -0.3 °F 4.5 °F 85% 30.26 in 10.0 mi South 4.6 mph - N/A   Clear
7:55 PM 9.7 °F -2.4 °F 5.2 °F 82% 30.25 in 10.0 mi South 8.1 mph - N/A   Clear
8:15 PM 7.2 °F -1.5 °F 3.6 °F 85% 30.24 in 10.0 mi South 4.6 mph - N/A   Clear
8:35 PM 8.4 °F -1.6 °F 4.6 °F 85% 30.23 in 10.0 mi South 5.8 mph - N/A   Clear
8:55 PM 8.1 °F -0.5 °F 4.5 °F 85% 30.23 in 10.0 mi South 4.6 mph - N/A   Clear
9:15 PM 7.7 °F 1.0 °F 3.0 °F 81% 30.22 in 10.0 mi South 3.5 mph - N/A   Clear
9:35 PM 9.1 °F 0.8 °F 5.7 °F 86% 30.21 in 10.0 mi South 4.6 mph - N/A   Clear
9:55 PM 11.3 °F 0.7 °F 6.1 °F 80% 30.21 in 10.0 mi SSW 6.9 mph - N/A   Clear
10:15 PM 12.9 °F 2.6 °F 7.2 °F 78% 30.21 in 10.0 mi South 6.9 mph - N/A   Clear
10:35 PM 14.0 °F 2.9 °F 8.1 °F 77% 30.20 in 10.0 mi South 8.1 mph - N/A   Clear
10:55 PM 14.4 °F 3.3 °F 8.4 °F 77% 30.19 in 10.0 mi South 8.1 mph - N/A   Clear
11:15 PM 13.8 °F 1.0 °F 7.7 °F 77% 30.19 in 10.0 mi SSW 10.4 mph - N/A   Clear
11:35 PM 14.4 °F 0.9 °F 8.2 °F 77% 30.17 in 10.0 mi South 11.5 mph - N/A   Clear
11:55 PM 14.5 °F 2.7 °F 8.4 °F 77% 30.17 in 10.0 mi SSW 9.2 mph - N/A   Clear